Probability
2 8 18 20 17 15 12 7 3 0 0 0 0 0 0 0 0 0 0 0 0 0 0 0 0 0 0 0 0 0 0 0 0 0 0 0 0 0 0 0 0 0 0
5 12 21 22 18 14 10 7 4 1 0 0 0 0 0 0 0 0 0 0 0 0 0 0 0 0 0 0 0 0 0 0 0 0 0 0 0 0 0 0 0 0 0
9 14 22 23 18 13 9 7 5 2 0 0 0 0 0 0 0 0 0 0 0 0 0 0 0 0 0 0 0 0 0 0 0 0 0 0 0 0 0 0 0 0 0
10 13 19 22 18 11 7 6 4 1 0 0 0 0 0 0 0 0 0 0 0 0 0 0 0 0 0 0 0 0 0 0 0 0 0 0 0 0 0 0 0 0 0
10 11 16 19 15 9 5 4 2 1 0 0 0 0 0 0 0 0 0 0 0 0 0 0 0 0 0 0 0 0 0 0 0 0 0 0 0 0 0 0 0 0 0
10 10 13 16 12 7 5 3 2 0 0 0 0 0 0 0 0 0 0 0 0 0 0 0 0 0 0 0 0 0 0 0 0 0 0 0 0 0 0 0 0 0 0
9 8 10 12 11 8 6 4 2 1 0 0 0 0 0 0 0 0 0 0 0 0 0 0 0 0 0 0 0 0 0 0 0 0 0 0 0 0 0 0 0 0 0
8 6 6 9 10 9 7 5 3 2 1 0 0 0 0 0 0 0 0 0 0 0 0 0 0 0 0 0 0 0 0 0 0 0 0 0 0 0 0 0 0 0 0
6 4 3 4 6 7 7 6 5 4 2 1 0 0 0 0 0 0 0 0 0 0 0 0 0 0 0 0 0 0 0 0 0 0 0 0 0 0 0 0 0 0 0
4 2 0 1 3 5 5 6 6 5 3 1 0 0 0 0 0 0 0 0 0 0 0 0 0 0 0 0 0 0 0 0 0 0 0 0 0 0 0 0 0 0 0
3 1 0 1 2 2 2 3 3 3 1 0 0 0 0 0 0 0 0 0 0 0 0 0 0 0 0 0 0 0 0 0 0 0 0 0 0 0 0 0 0 0 0
3 1 0 1 2 1 0 1 1 1 0 0 0 0 0 0 0 0 0 0 0 0 0 0 0 0 0 0 0 0 0 0 0 0 0 0 0 0 0 0 0 0 0
2 1 1 1 1 0 0 0 0 0 0 0 0 0 0 0 0 0 0 0 0 0 0 0 0 0 0 0 0 0 0 0 0 0 0 0 0 0 0 0 0 0 0
2 2 2 1 1 0 0 0 0 0 0 0 0 0 0 0 0 0 0 0 0 0 0 0 0 0 0 0 0 0 0 0 0 0 0 0 0 0 0 0 0 0 0
1 3 4 3 2 1 0 0 0 0 0 0 0 0 0 0 0 0 0 0 0 0 0 0 0 0 0 0 0 0 0 0 0 0 0 0 0 0 0 0 0 0 0
0 3 6 5 3 1 0 0 0 0 0 0 0 0 0 0 0 0 0 0 0 0 0 0 0 0 0 0 0 0 0 0 0 0 0 0 0 0 0 0 0 0 0
0 2 5 6 4 2 1 0 0 0 0 0 0 0 0 0 0 0 0 0 0 0 0 0 0 0 0 0 0 0 0 0 0 0 0 0 0 0 0 0 0 0 0
0 1 4 5 4 2 1 0 0 0 0 0 0 0 0 0 0 0 0 0 0 0 0 0 0 0 0 0 0 0 0 0 0 0 0 0 0 0 0 0 0 0 0
0 0 2 4 4 3 1 0 0 0 0 0 0 0 0 0 0 0 0 0 0 0 0 0 0 0 0 0 0 0 0 0 0 0 0 0 0 0 0 0 0 0 0
0 0 2 4 5 2 1 0 0 0 0 0 0 0 0 0 0 0 0 0 0 0 0 0 0 0 0 0 0 0 0 0 0 0 0 0 0 0 0 0 0 0 0
0 0 1 3 3 1 0 0 0 0 0 0 0 0 0 0 0 0 0 0 0 0 0 0 0 0 0 0 0 0 0 0 0 0 0 0 0 0 0 0 0 0 0
0 0 0 2 2 1 0 0 0 0 0 0 0 0 0 0 0 0 0 0 0 0 0 0 0 0 0 0 0 0 0 0 0 0 0 0 0 0 0 0 0 0 0
0 0 0 1 2 2 1 0 0 0 0 0 0 0 0 0 0 0 0 0 0 0 0 0 0 0 0 0 0 0 0 0 0 0 0 0 0 0 0 0 0 0 0
0 0 0 0 1 2 1 0 0 0 0 0 0 0 0 0 0 0 0 0 0 0 0 0 0 0 0 0 0 0 0 0 0 0 0 0 0 0 0 0 0 0 0
0 1 1 0 1 2 2 1 0 0 0 0 0 0 0 0 0 0 0 0 0 0 0 0 0 0 0 0 0 0 0 0 0 0 0 0 0 0 0 0 0 0 0
1 2 2 1 0 1 2 1 0 0 0 0 0 0 0 0 0 0 0 0 0 0 0 0 0 0 0 0 0 0 0 0 0 0 0 0 0 0 0 0 0 0 0
Wind_Speed
13 16 22 21 20 18 17 17 16 16 16 15 15 15 15 15 15 15 15 15 15 15 16 16 17 17 17 17 17 17 16 16 16 17 17 17 17 17 17 17 15 10 17
16 19 23 22 20 19 18 17 16 16 15 15 15 15 15 15 14 15 15 15 15 15 15 16 16 16 16 16 16 15 15 14 13 14 15 15 16 16 16 16 15 10 15
19 19 20 22 21 19 18 17 17 16 15 15 15 15 15 15 15 15 15 15 15 15 15 15 15 16 16 15 15 14 13 12 11 11 12 7 10 15 15 15 15 15 15
18 18 17 21 21 20 19 18 17 16 16 15 15 15 15 15 15 15 15 15 15 15 15 15 15 15 15 14 14 13 11 10 11 13 8 8 7 13 14 14 14 14 14
17 16 18 22 21 20 19 18 17 17 16 15 15 15 15 15 15 15 15 14 14 14 14 14 14 14 14 13 12 11 9 9 10 11 7 7 6 11 13 13 13 14 13
17 15 17 21 21 20 19 18 17 17 16 16 15 15 15 15 14 14 14 14 14 13 13 13 13 13 13 12 11 10 9 10 8 7 7 7 5 11 12 12 13 13 13
16 16 17 20 21 20 20 19 18 17 17 16 15 15 15 15 14 14 13 13 13 12 12 12 12 12 12 11 10 8 9 10 6 6 7 6 6 12 12 12 12 13 14
16 17 16 20 20 20 19 19 18 17 17 16 16 15 15 15 14 14 13 12 12 12 11 11 11 11 11 10 9 7 8 9 6 7 7 5 9 12 12 13 13 14 14
16 16 14 13 15 18 18 18 18 17 17 17 16 16 15 15 14 13 12 12 11 11 11 10 10 10 10 9 7 6 7 9 4 5 8 5 9 11 12 12 13 14 14
14 15 14 13 13 12 12 15 16 16 16 16 15 14 14 13 13 13 11 11 11 10 10 10 9 9 8 7 5 4 6 7 4 7 4 5 10 11 12 12 12 13 14
14 14 14 14 13 12 11 14 13 14 14 14 13 14 12 7 7 8 9 10 10 10 10 9 8 7 6 5 2 2 4 1 5 5 4 7 9 10 11 12 12 13 13
15 15 14 14 14 12 11 10 8 9 9 8 8 9 6 6 6 8 11 10 10 9 9 8 7 5 4 2 1 1 1 2 4 4 4 9 9 9 10 11 11 12 12
14 14 14 13 14 12 9 9 6 6 6 7 10 8 6 5 5 6 4 5 5 6 4 5 4 2 2 2 1 1 2 3 3 4 4 8 8 9 9 10 10 11 12
13 13 13 13 13 12 10 9 7 6 6 6 8 9 6 4 5 5 4 4 4 3 3 3 2 2 3 2 2 2 3 3 3 3 4 8 8 8 8 9 9 10 10
13 14 13 13 13 11 10 8 8 8 7 7 7 7 7 5 5 5 4 4 4 4 4 3 2 3 3 2 2 3 3 3 4 5 3 8 7 7 7 8 8 9 9
15 15 13 14 13 11 9 8 7 8 7 7 6 7 8 6 5 5 5 5 4 4 3 3 3 3 2 2 2 3 3 3 3 5 4 5 7 7 7 7 7 8 8
16 15 14 14 13 13 11 9 7 7 7 6 6 7 8 7 7 5 5 4 4 4 4 2 3 3 3 2 2 3 3 2 2 3 5 4 4 6 6 6 6 7 7
15 16 15 14 14 13 10 9 6 7 7 6 7 6 8 8 8 6 5 5 5 4 3 3 3 3 2 2 2 2 2 2 2 2 3 3 3 3 4 5 5 5 6
16 17 16 15 15 14 11 8 7 7 7 6 7 6 8 8 8 6 5 5 5 4 3 3 3 3 2 2 2 2 1 1 1 1 2 3 3 4 3 3 3 3 3
15 17 16 15 14 13 10 8 6 6 7 6 7 7 9 8 8 7 5 6 6 5 4 4 3 3 3 3 2 1 1 1 1 2 2 3 3 3 3 3 2 1 0
15 17 18 17 15 13 11 10 10 8 7 6 6 9 10 9 9 7 6 6 6 5 5 5 4 4 2 3 2 0 1 1 2 2 2 2 3 3 3 2 2 2 1
16 17 18 18 17 16 12 11 9 8 6 6 6 8 10 9 9 8 8 6 6 5 6 6 5 4 3 3 3 2 0 2 2 2 2 2 3 2 3 3 2 2 1
16 17 17 19 18 17 13 9 8 7 5 6 7 7 9 10 10 9 9 7 7 7 6 6 6 6 4 3 3 3 3 3 1 2 3 3 3 2 3 3 3 3 2
16 16 16 18 18 17 16 13 15 13 11 10 9 7 8 10 10 10 10 9 8 7 7 7 7 5 6 4 2 2 2 3 3 1 2 3 4 4 4 3 3 3 3
15 15 15 16 17 17 17 16 16 12 10 7 7 10 10 9 10 11 10 9 9 7 8 8 7 6 5 5 4 3 2 0 1 3 2 2 2 3 3 4 3 3 3
14 14 14 16 16 17 18 17 17 16 13 12 11 11 10 8 9 11 11 10 9 8 8 8 8 8 6 6 4 4 4 3 3 3 3 2 3 3 3 3 3 3 3
Wind_Direction
140 151 155 151 148 144 140 135 130 126 121 117 115 112 107 104 102 100 98 96 92 88 85 83 80 78 77 76 75 74 74 73 73 72 69 66 64 61 57 54 54 47 51
140 149 154 151 149 146 143 137 132 128 125 121 117 114 110 108 106 102 99 97 95 91 87 85 82 80 79 77 75 75 75 74 73 74 71 66 62 61 59 56 55 52 51
140 146 153 151 149 147 144 139 135 132 129 125 120 117 113 112 108 104 101 98 95 91 89 87 85 82 80 78 77 75 72 64 54 63 69 64 55 56 56 54 52 51 49
140 146 152 150 150 148 145 142 138 134 131 128 124 120 117 114 111 107 103 100 97 93 90 88 88 85 82 79 77 74 66 51 40 57 61 56 47 53 52 49 48 47 46
139 146 149 151 151 149 147 144 140 137 134 131 128 125 121 117 113 109 105 103 100 97 95 93 90 87 84 80 77 72 59 38 35 61 60 57 42 47 48 46 45 44 43
139 143 148 152 151 150 148 145 144 141 137 134 131 129 125 120 116 111 109 106 103 102 99 96 93 88 83 79 76 66 46 25 49 59 59 49 34 44 48 47 44 45 44
141 142 149 154 153 150 149 147 146 143 140 138 135 133 129 124 119 116 114 110 108 105 102 100 95 90 85 79 73 59 32 13 66 65 64 46 37 46 48 48 48 48 46
140 142 151 155 154 152 150 149 147 146 143 141 138 136 132 128 125 122 120 117 114 109 106 102 97 92 87 79 69 50 25 15 50 73 67 44 43 48 51 52 52 48 47
140 143 150 155 154 152 151 149 149 147 146 144 142 138 134 132 131 128 125 123 119 112 107 104 100 96 90 82 69 40 15 358 22 63 66 42 45 51 55 53 50 48 48
141 146 152 155 154 152 150 149 148 148 148 146 141 135 134 136 135 132 128 126 123 118 114 110 105 100 97 94 76 26 352 335 58 67 57 41 50 55 56 53 52 50 49
150 153 157 158 157 155 153 152 149 149 147 143 138 136 136 138 134 134 129 132 131 127 122 117 118 119 117 118 114 349 327 35 77 74 53 48 54 55 57 56 53 49 47
161 160 162 160 158 157 157 151 152 151 148 148 146 149 156 150 143 135 133 139 139 135 132 137 146 147 145 156 203 281 315 67 90 86 62 54 54 58 58 56 53 49 47
165 163 164 160 158 157 152 156 158 154 157 159 156 165 162 142 131 127 137 136 138 144 146 156 165 189 151 131 133 95 35 46 76 85 66 61 57 60 60 57 53 49 47
168 167 163 159 159 158 155 160 158 156 165 164 164 168 158 142 142 148 150 157 160 162 152 169 185 161 130 124 98 84 64 60 81 95 77 72 62 60 62 59 55 51 48
171 169 166 162 162 159 156 162 163 162 166 163 163 167 154 145 153 156 159 158 165 155 159 184 171 137 118 99 83 80 79 80 90 101 95 86 74 64 62 61 54 51 46
174 172 168 165 164 161 160 164 163 162 162 161 160 165 156 150 159 161 157 157 162 151 159 174 141 128 117 103 91 85 80 82 94 113 121 98 88 77 67 61 52 48 43
175 172 170 168 166 165 165 166 163 159 159 160 160 165 162 157 163 163 155 158 158 152 156 150 126 116 110 109 109 93 81 70 77 111 126 128 111 91 79 65 52 47 39
173 173 172 171 169 169 168 167 163 162 160 161 160 165 168 164 163 162 152 159 156 148 147 139 133 128 129 134 112 96 97 90 73 95 113 126 128 120 101 88 66 47 33
175 173 173 171 171 170 168 167 165 162 162 163 162 165 172 169 164 158 155 160 151 145 149 152 146 143 142 128 117 115 113 125 134 130 129 124 121 125 129 123 107 69 30
176 173 173 171 172 168 167 166 166 165 168 168 167 168 169 170 166 159 157 162 152 149 155 153 150 143 133 134 121 114 142 156 177 170 161 140 142 147 148 153 151 160 102
175 173 173 173 174 171 175 176 176 179 175 174 171 171 172 171 169 164 162 165 159 160 165 163 152 143 142 129 104 70 305 234 195 182 179 166 167 163 163 172 170 165 187
177 175 174 175 178 178 182 179 175 171 173 173 170 174 176 175 173 173 167 168 164 163 169 171 154 147 159 153 149 141 196 304 281 217 192 184 184 177 187 189 181 181 175
180 178 178 178 179 181 176 169 163 161 166 176 183 184 183 179 177 175 174 169 171 168 175 176 165 158 163 184 181 158 164 209 233 255 224 203 199 200 206 198 197 196 193
180 178 178 178 179 180 177 177 176 180 185 188 183 182 182 183 181 178 178 176 175 173 175 178 172 166 158 174 201 204 180 162 150 225 275 237 216 214 213 207 200 202 196
177 176 179 178 180 179 181 183 184 188 188 176 174 179 185 188 185 182 181 182 180 179 178 178 173 173 170 167 169 170 192 196 172 157 226 255 253 237 218 209 200 200 198
176 175 177 179 181 180 183 185 188 189 184 179 182 184 186 187 189 188 185 187 185 182 181 179 175 177 179 172 170 164 162 170 193 182 201 221 236 245 229 211 201 203 201